Location: Klein M�hlingen
(51.9472°N, 11.7453°E)
Time: 06:07:10
(UTC+00:00)

Cosmos 1459 Rocket - Pass Details

Date: 09 April 2020
Orbit: 936 x 1001 km, 83.0° (Epoch: 29 May)

Event Time Altitude Azimuth Distance (km) Brightness Sun altitude
Rises 21:42:15 0° 352° (N) 3,737 8.2 -26.9°
Reaches altitude 10° 21:44:56 10° 358° (N) 2,779 7.2 -27.0°
Maximum altitude 21:51:03 46° 71° (ENE) 1,310 4.5 -27.4°
Enters shadow 21:51:39 45° 87° (E) 1,330 4.5 -27.5°
